www.pogodaiklimat.ru

Погода и климат >> Архив погоды >> Южная Африка >> Слангкоп


ПОГОДА на Слангкопе

  • Прогноз погоды на Слангкопе
  • Монитор погоды на Слангкопе

АРХИВ ПОГОДЫ на Слангкопе

Время (UTC), дата Ветер
(напр.,м/с)
 
Видим.   Явления Облачность Т
(С)
Тd
(С)
f
(%)
Тe
(С)
Тes
(С)
Комфортность P
(гПа)
Po
(гПа)
Тmin
(С)
Tmax
(С)
R
(мм)
R24
(мм)
S
(см)
00 9.06 СВ 5 н/о н/о +24.3 +6.3 31 +24 +24 комфорт 1015.2 1014.3 +15.0 +24.4
03 9.06 С 11 н/о н/о +24.6 +2.3 23 +24 +24 комфорт 1012.0 1011.1 +15.0 +26.0
06 9.06 С 19 24 км 3/0
[Cs]
+27.2 -1.3 15 +25 +25 комфорт 1011.0 1010.1 +15.0
09 9.06 С 12 н/о н/о +20.1 +9.4 50 +20 +20 1013.2 1012.3 +15.0 +27.1
12 9.06 С 9 24 км 1/1 200 м
[Cu hum]
+19.4 +13.6 69 +20 +21 1012.5 1011.6 +15.0 +27.1
15 9.06 С 5 н/о н/о +17.2 +13.7 80 +17 +17 1014.5 1013.6 +17.2 +27.1
18 9.06 С 8 н/о н/о +17.0 +14.6 86 +16 +16 1016.7 1015.8 +16.5 +27.1
21 9.06 С 10 н/о н/о +16.3 +14.3 88 +14 +14 1018.2 1017.3 +16.1 +27.1
03 10.06 З 7 н/о н/о +16.8 +13.5 81 +16 +16 1020.2 1019.3 +15.7 +27.1
06 10.06 З 5 н/о н/о +16.7 +11.9 73 +16 +16 1022.4 1021.5 +15.7 0.8
09 10.06 СЗ 5 н/о н/о +17.0 +12.9 77 +16 +16 1023.8 1022.9 +15.7 +17.1
12 10.06 С 7 н/о н/о +18.1 +12.4 69 +18 +18 1022.9 1022.0 +15.7 +18.1
15 10.06 С 8 н/о н/о +16.9 +12.2 74 +16 +16 1022.6 1021.7 +16.8 +18.1
18 10.06 С 9 20 км 10/10 200 м
[Sc]
+16.3 +11.7 74 +15 +15 1022.8 1021.9 +16.2 +18.1
21 10.06 С 8 н/о н/о +15.6 +12.0 79 +14 +14 1022.3 1021.4 +15.6 +18.1
00 11.06 С 8 н/о н/о +14.9 +11.8 82 +13 +13 1021.1 1020.2 +14.8 +18.1
03 11.06 С 8 н/о н/о +14.8 +11.6 81 +13 +13 1019.1 1018.2 +14.7 +18.1
06 11.06 С 9 н/о н/о +14.7 +11.3 80 +12 +12 1018.7 1017.8 +14.5
09 11.06 С 10 н/о н/о +16.8 +12.2 74 +15 +15 1017.8 1016.9 +14.5 +16.8
12 11.06 С 9 н/о н/о +17.7 +13.2 75 +17 +17 1015.8 1014.9 +14.5 +17.8
15 11.06 С 12 н/о н/о +17.1 +12.4 74 +15 +15 1014.9 1014.0 +16.7 +17.9
18 11.06 С 13 20 км 10/10 200 м
[Sc]
+16.6 +12.0 74 +15 +15 1015.7 1014.8 +16.6 +17.9
21 11.06 С 10 н/о н/о +15.7 +13.5 87 +13 +13 1017.6 1016.7 +15.2 +17.9
00 12.06 З 10 н/о н/о +17.0 +9.5 61 +15 +15 1019.3 1018.4 +15.2 +17.9 0.6
03 12.06 З 9 н/о н/о +16.2 +10.7 70 +14 +14 1020.6 1019.7 +15.2 +17.9
06 12.06 З 10 н/о н/о +16.2 +8.5 60 +14 +14 1023.0 1022.1 +15.1 0.8
09 12.06 ЮЗ 10 н/о н/о +15.5 +9.2 66 +13 +13 1025.9 1025.0 +14.9 +16.4
12 12.06 ЮЗ 8 н/о н/о +16.1 +8.6 61 +15 +15 1026.4 1025.5 +14.9 +16.4
15 12.06 ЮЗ 5 н/о н/о +15.4 +9.3 67 +14 +14 1028.6 1027.7 +14.3 +16.4
18 12.06 Ю 6 20 км {дождь} 8/8 200 м
[Sc]
+14.0 +8.6 70 +12 +12 1030.9 1030.0 +11.8 +16.4 0.8
21 12.06 Ю 4 н/о н/о +14.2 +7.7 65 +13 +13 1032.0 1031.1 +11.7 +16.4
00 13.06 Ю 2 н/о н/о +12.8 +7.0 68 +12 +12 1033.0 1032.1 +10.7 +16.4 0.8
03 13.06 С 1 н/о н/о +11.4 +5.7 68 +11 +11 1033.2 1032.3 +10.7 +16.4
06 13.06 В 2 20 км 1/1 200 м
[Cu med, cong]
+12.1 +2.6 52 +11 +11 1033.6 1032.7 +9.8 0.8
09 13.06 ЮЗ 2 н/о н/о +14.9 +7.7 62 +15 +15 1034.3 1033.4 +9.8 +15.1
12 13.06 ЮЗ 2 24 км ясно +16.1 +6.6 53 +17 +22 1031.8 1030.9 +9.8 +16.1
15 13.06 Ю 2 н/о н/о +15.6 +6.9 56 +16 +16 1031.0 1030.1 +15.5 +16.4
18 13.06 З 1 н/о н/о +11.4 +4.4 62 +11 +11 1031.2 1030.3 +9.9 +16.4
21 13.06 С 1 н/о н/о +10.8 +3.8 62 +11 +11 1030.3 1029.4 +9.9 +16.4
00 14.06 СВ 4 н/о н/о +9.2 +3.6 68 +7 +7 1029.1 1028.2 +8.7 +16.4
06 14.06 Ю 1 н/о н/о +10.9 +7.0 77 +11 +11 1029.0 1028.1 +8.2
09 14.06 Ю 1 н/о н/о +15.9 +10.9 72 +17 +17 1029.0 1028.1 +8.2 +15.9
12 14.06 Ю 3 н/о н/о +16.4 +10.9 70 +16 +16 1026.0 1025.1 +8.2 +17.3
15 14.06 ЮВ 3 н/о н/о +16.4 +12.0 75 +16 +16 1024.3 1023.4 +16.3 +17.3
21 14.06 З 1 н/о н/о +12.2 +7.3 72 +12 +12 1023.6 1022.7 +9.9 +17.3
00 15.06 Ю 1 н/о н/о +10.6 +5.8 72 +10 +10 1021.9 1021.0 +8.6 +17.3
15 15.06 СЗ 2 н/о н/о +17.5 +13.4 77 +18 +18 1022.0 1021.1 +17.3 +19.0
18 15.06 С 2 н/о н/о +13.7 +10.8 83 +13 +13 1022.3 1021.4 +13.7 +19.0

 

Местоположение метеостанции Слангкоп (Южная Африка): широта -34.15 долгота 18.32 высота над уровнем моря 8 м.

В архиве по умолчанию представлена погода на Слангкопе за последнюю неделю. Архивные данные за месяц целиком и за предыдущие месяцы, начиная с января 2011 года, Вы можете получить, выбрав интересующий диапазон дат из раскрывающегося списка и нажав кнопку "Ввод!".


*Определитесь, кто Вы:
робот инопланетянин человек

Внимание! Время в таблицах - всемирное. Для получения местного времени необходимо прибавить поправку, которая равна 2 ч.

Смотрите также архив погоды в соседних городах и на ближайших метеорологических станциях:

Погода в Кейптауне (Южная Африка) (25 км)
Погода на Кейп-Пойнт (Южная Африка) (28 км)
Погода в Кейптаун порту (Южная Африка) (30 км)
Погода в Йестерпланте (Южная Африка) (32 км)
Погода в Кейптауне аэропорту (Южная Африка) (33 км)
Погода в Кейптауне аэропорту АМС (Южная Африка) (33 км)
Погода на Роббенэйланде (Южная Африка) (39 км)
Погода в Странде (Южная Африка) (49 км)
Погода в Парле (Южная Африка) (77 км)
Погода в Малмсбери (Южная Африка) (85 км)

Пояснения к столбцам:

Ветер - указаны скорость ветра в м/с - средняя за 10 мин, порывы в срок и между сроками (в фигурных скобках) и направление, откуда дует ветер: С - северный, СВ - северо-восточный, В - восточный, ЮВ - юго-восточный, Ю - южный, ЮЗ - юго-западный, З - западный, СЗ - северо-западный.
Видимость - горизонтальная дальность видимости в метрах или километрах. При видимости от 1 до 10 км при отсутствии осадков обычно наблюдается дымка, при ухудшении видимости до 1 км и менее - туман. В сухую погоду видимость может ухудшаться дымом, пылью или мглою.
Явления - указаны атмосферные явления, наблюдавшиеся в срок или в последний час перед сроком; фигурными скобками обозначены явления, наблюдавшиеся между сроками (за 1-3 часа до срока); квадратными скобками обозначены град или гололедные отложения с указанием их диаметра в мм.
Облачность - указаны через наклонную черту общая и нижняя облачность в баллах и высота нижней границы облаков в метрах; квадратными скобками обозначены формы облаков: Ci - перистые, Cs - перисто-слоистые, Cc - перисто-кучевые, Ac - высококучевые, As - высокослоистые, Sc - слоисто-кучевые, Ns - слоисто-дождевые, Cu - кучевые, Cb - кучево-дождевые. Подробнее классификацию облаков см. в Атласе облаков (PDF).
T - Температура воздуха - температура, измеренная на высоте 2 м над землей.
Td - Температура точки росы - температура, при понижении до которой содержащийся в воздухе водяной пар достигнет насыщения.
f - Относительная влажность воздуха - влажноcть воздуха, измеренная на высоте 2 м над землей.
Te - Эффективная температура - температура, которую ощущает одетый по сезону человек в тени. Характеристика душности погоды. При расчете учитывается влияние влажности воздуха и скорости ветра на теплоощущения человека.
Tes - Эффективная температура на солнце - температура, которую ощущает человек, с поправкой на солнечный нагрев. Характеристика знойности погоды. Зависит от высоты солнца над горизонтом, облачности и скорости ветра. Ночью, в пасмурную погоду, а также при ветре 12 м/с и более поправка равна нулю.
P - Атмосферное давление - приведенное к уровню моря атмосферное давление.
Po - Атмосферное давление - измеренное на уровне метеостанции атмосферное давление.
Tmin - Минимальная температура - минимум температуры воздуха на высоте 2 м над землей.
Tmax - Максимальная температура - максимум температуры воздуха на высоте 2 м над землей.
R - Количество осадков - Количество выпавших осадков за период времени, мм. При наведении курсора мыши на число - период времени, за который выпало указанное количество осадков.
R24 - Количество осадков - Количество выпавших осадков за 24 часа, мм.
S - Снежный покров - Высота снежного покрова, см. При наведении курсора мыши на число - состояние снежного покрова и степень покрытия местности в баллах.